Track COSMOS 1053 now! 10-day predictions COSMOS 1053 is classified as:
1 11130U 78109C 22223.47164719 -.00000009 00000-0 42972-4 0 9999 2 11130 74.0194 322.6784 0037433 219.3758 221.1571 12.51464789995627